Location: Chervonnoye
(48.6000°N, 34.4000°E)
Time: 19:46:52
(UTC+00:00)

RS-44 - Pass Details

Date: 03 December 2021
Orbit: 1175 x 1510 km, 82.5° (Epoch: 19 January)

Event Time Altitude Azimuth Distance (km) Brightness Sun altitude
Rises 03:08:02 0° 353° (N) 4,133 ? -20.3°
Reaches altitude 10° 03:10:53 10° 1° (N) 3,196 ? -19.8°
Maximum altitude 03:17:54 41° 70° (ENE) 1,790 ? -18.7°
Drops below altitude 10° 03:25:19 10° 138° (SE) 3,393 ? -17.5°
Sets 03:28:25 0° 146° (SE) 4,412 ? -17.0°
